Location: Ford County Road and Bridge Department
(37.7686°N, 99.9762°W)
Time: 06:08:05
(UTC+00:00)

Cosmos 2227 Rocket - Pass Details

Date: 18 January 2020
Orbit: 841 x 843 km, 71.0° (Epoch: 19 February)

Event Time Altitude Azimuth Distance (km) Brightness Sun altitude
Rises 02:19:46 0° 217° (SW) 3,384 5.9 -29.9°
Reaches altitude 10° 02:22:17 10° 223° (SW) 2,452 5.1 -30.4°
Maximum altitude 02:27:41 47° 297° (WNW) 1,109 3.0 -31.5°
Enters shadow 02:28:40 42° 326° (NW) 1,177 3.0 -31.6°
